Pampa, TX

3:06 AM CST on January 23, 2018 (GMT -0600)
Perry Lefors

Weather History for KPPA - February, 2013

Change the Weather History Date:

Friday, February 8, 2013

  Actual Average Record
Temperature  
Mean Temperature 37 °F -  
Max Temperature 51 °F 48 °F 73 °F (2015)
Min Temperature 23 °F 21 °F 1 °F (2011)
Degree Days  
Heating Degree Days 28    
Moisture  
Dew Point 18 °F    
Average Humidity 48    
Maximum Humidity 86    
Minimum Humidity 26    
Precipitation  
Precipitation 0.00 in - - ()
Sea Level Pressure  
Sea Level Pressure 30.15 in    
Wind  
Wind Speed 11 mph (SSE)    
Max Wind Speed 22 mph    
Max Gust Speed 28 mph    
Visibility 10 miles    
Events      
Averages and records for this station are not official NWS values.
T = Trace of Precipitation, MM = Missing Value Source: NWS Daily Summary

Daily Weather History Graph

Daily Weather History Graph

Search for Another Location

Airport or City:

Trip Planner

Search our weather history database for the weather conditions in past years. The results will help you decide how hot, cold, wet, or windy it might be!

Date:

Astronomy

Feb. 08, 2013 Rise Set
Actual Time 7:37 AM CST 6:19 PM CST
Civil Twilight 7:11 AM CST 6:45 PM CST
Nautical Twilight 6:41 AM CST 7:15 PM CST
Astronomical Twilight 6:11 AM CST 7:45 PM CST
Moon 6:06 AM CST (2/8) 4:55 PM CST (2/8)
Length of Visible Light 11h 34m
Length of Day
10h 41m
Waning Crescent, 3% of the Moon is Illuminated
Feb 8
Waning Crescent
Feb 10
New
Feb 17
First Quarter
Feb 25
Full
Mar 4
Last Quarter

Hourly Weather History & Observations

Time (CST) Temp. Windchill Dew Point Humidity Pressure Visibility Wind Dir Wind Speed Gust Speed Precip Events Conditions
12:15 AM 32.0 °F 27.5 °F 19.4 °F 60% 30.23 in 10.0 mi SE 4.6 mph - N/A   Clear
12:35 AM 33.8 °F 29.6 °F 21.2 °F 60% 30.23 in 10.0 mi SSE 4.6 mph - N/A   Clear
12:55 AM 35.6 °F 30.7 °F 19.4 °F 52% 30.23 in 10.0 mi SE 5.8 mph - N/A   Clear
1:15 AM 32.0 °F 25.6 °F 19.4 °F 60% 30.23 in 10.0 mi SSE 6.9 mph - N/A   Clear
1:35 AM 28.4 °F 19.7 °F 17.6 °F 64% 30.23 in 10.0 mi South 9.2 mph - N/A   Clear
1:55 AM 26.6 °F 17.5 °F 17.6 °F 69% 30.23 in 10.0 mi SSE 9.2 mph - N/A   Clear
2:15 AM 26.6 °F 18.2 °F 17.6 °F 69% 30.23 in 10.0 mi South 8.1 mph - N/A   Clear
2:35 AM 26.6 °F 18.2 °F 19.4 °F 74% 30.23 in 10.0 mi South 8.1 mph - N/A   Clear
2:55 AM 28.4 °F 20.4 °F 19.4 °F 69% 30.23 in 10.0 mi South 8.1 mph - N/A   Clear
3:35 AM 26.6 °F 18.2 °F 19.4 °F 74% 30.23 in 10.0 mi South 8.1 mph - N/A   Clear
3:55 AM 28.4 °F 20.4 °F 19.4 °F 69% 30.22 in 10.0 mi SSE 8.1 mph - N/A   Clear
4:15 AM 28.4 °F 22.2 °F 17.6 °F 64% 30.22 in 10.0 mi SSE 5.8 mph - N/A   Clear
4:35 AM 24.8 °F 16.1 °F 17.6 °F 74% 30.22 in 10.0 mi South 8.1 mph - N/A   Clear
4:55 AM 26.6 °F 16.8 °F 19.4 °F 74% 30.23 in 10.0 mi South 10.4 mph - N/A   Clear
5:15 AM 26.6 °F 16.2 °F 19.4 °F 74% 30.22 in 10.0 mi South 11.5 mph - N/A   Clear
5:35 AM 24.8 °F 15.3 °F 17.6 °F 74% 30.22 in 10.0 mi South 9.2 mph - N/A   Clear
5:55 AM 23.0 °F 13.1 °F 17.6 °F 80% 30.21 in 10.0 mi South 9.2 mph - N/A   Clear
6:15 AM 24.8 °F 15.3 °F 17.6 °F 74% 30.21 in 10.0 mi South 9.2 mph - N/A   Clear
6:35 AM 24.8 °F 16.1 °F 17.6 °F 74% 30.21 in 10.0 mi South 8.1 mph - N/A   Clear
6:55 AM 24.8 °F 14.6 °F 19.4 °F 80% 30.23 in 10.0 mi South 10.4 mph - N/A   Clear
7:15 AM 24.8 °F 14.6 °F 19.4 °F 80% 30.23 in 10.0 mi South 10.4 mph - N/A   Clear
7:35 AM 23.0 °F 11.7 °F 19.4 °F 86% 30.23 in 10.0 mi South 11.5 mph - N/A   Clear
7:55 AM 24.8 °F 15.3 °F 19.4 °F 80% 30.24 in 10.0 mi South 9.2 mph - N/A   Clear
8:15 AM 30.2 °F 21.9 °F 23.0 °F 75% 30.23 in 10.0 mi SSE 9.2 mph - N/A   Clear
8:35 AM 32.0 °F 24.2 °F 24.8 °F 75% 30.24 in 10.0 mi South 9.2 mph - N/A   Clear
8:55 AM 35.6 °F 27.1 °F 26.6 °F 70% 30.24 in 10.0 mi South 12.7 mph - N/A   Clear
9:15 AM 35.6 °F 27.5 °F 24.8 °F 65% 30.23 in 10.0 mi South 11.5 mph - N/A   Clear
9:35 AM 37.4 °F 29.3 °F 23.0 °F 56% 30.24 in 10.0 mi South 12.7 mph - N/A   Clear
9:55 AM 41.0 °F 33.5 °F 23.0 °F 49% 30.24 in 10.0 mi South 13.8 mph - N/A   Clear
10:15 AM 42.8 °F 35.4 °F 21.2 °F 42% 30.23 in 10.0 mi South 15.0 mph - N/A   Clear
10:35 AM 42.8 °F 36.2 °F 21.2 °F 42% 30.24 in 10.0 mi South 12.7 mph - N/A   Clear
10:55 AM 44.6 °F 37.4 °F 21.2 °F 39% 30.25 in 10.0 mi South 16.1 mph - N/A   Clear
11:15 AM 46.4 °F 39.5 °F 21.2 °F 37% 30.24 in 10.0 mi South 17.3 mph 20.7 mph N/A   Clear
11:35 AM 46.4 °F 40.4 °F 19.4 °F 34% 30.24 in 10.0 mi South 13.8 mph - N/A   Clear
11:55 AM 50.0 °F - 21.2 °F 32% 30.24 in 10.0 mi South 16.1 mph - N/A   Clear
12:15 PM 50.0 °F - 19.4 °F 30% 30.21 in 10.0 mi South 19.6 mph 24.2 mph N/A   Clear
12:35 PM 50.0 °F - 19.4 °F 30% 30.19 in 10.0 mi South 16.1 mph 24.2 mph N/A   Clear
12:55 PM 50.0 °F - 21.2 °F 32% 30.19 in 10.0 mi South 19.6 mph 25.3 mph N/A   Clear
1:15 PM 51.8 °F - 19.4 °F 28% 30.18 in 10.0 mi South 18.4 mph 24.2 mph N/A   Clear
1:35 PM 51.8 °F - 17.6 °F 26% 30.17 in 10.0 mi South 17.3 mph - N/A   Clear
1:55 PM 50.0 °F - 17.6 °F 28% 30.16 in 10.0 mi South 19.6 mph 24.2 mph N/A   Clear
2:15 PM 50.0 °F - 17.6 °F 28% 30.15 in 10.0 mi South 16.1 mph - N/A   Clear
2:35 PM 50.0 °F - 17.6 °F 28% 30.13 in 10.0 mi South 16.1 mph 27.6 mph N/A   Clear
2:55 PM 51.8 °F - 17.6 °F 26% 30.11 in 10.0 mi South 20.7 mph 26.5 mph N/A   Clear
3:15 PM 51.8 °F - 17.6 °F 26% 30.10 in 10.0 mi South 20.7 mph - N/A   Clear
3:35 PM 50.0 °F - 15.8 °F 26% 30.09 in 10.0 mi SSE 19.6 mph 25.3 mph N/A   Clear
3:55 PM 50.0 °F - 17.6 °F 28% 30.09 in 10.0 mi South 17.3 mph 25.3 mph N/A   Clear
4:15 PM 48.2 °F - 17.6 °F 30% 30.08 in 10.0 mi South 18.4 mph 25.3 mph N/A   Clear
4:35 PM 50.0 °F - 17.6 °F 28% 30.08 in 10.0 mi South 19.6 mph 24.2 mph N/A   Clear
4:55 PM 48.2 °F - 17.6 °F 30% 30.07 in 10.0 mi South 21.9 mph - N/A   Clear
5:35 PM 46.4 °F 39.0 °F 17.6 °F 32% 30.07 in 10.0 mi South 19.6 mph 25.3 mph N/A   Clear
5:55 PM 44.6 °F 36.9 °F 15.8 °F 31% 30.07 in 10.0 mi South 18.4 mph - N/A   Clear
6:15 PM 44.6 °F 37.8 °F 15.8 °F 31% 30.06 in 10.0 mi South 15.0 mph - N/A   Clear
6:35 PM 44.6 °F 38.8 °F 14.0 °F 29% 30.06 in 10.0 mi SSE 11.5 mph - N/A   Clear
6:55 PM 42.8 °F 36.2 °F 14.0 °F 31% 30.05 in 10.0 mi SSE 12.7 mph - N/A   Clear
7:15 PM 42.8 °F 37.0 °F 14.0 °F 31% 30.05 in 10.0 mi SSE 10.4 mph - N/A   Clear
7:35 PM 41.0 °F 34.7 °F 14.0 °F 33% 30.05 in 10.0 mi SSE 10.4 mph - N/A   Clear
7:55 PM 41.0 °F 33.9 °F 14.0 °F 33% 30.05 in 10.0 mi SE 12.7 mph - N/A   Clear
8:15 PM 41.0 °F 32.5 °F 14.0 °F 33% 30.04 in 10.0 mi SSE 17.3 mph 23.0 mph N/A   Clear
8:35 PM 41.0 °F 32.2 °F 14.0 °F 33% 30.04 in 10.0 mi SSE 18.4 mph 21.9 mph N/A   Clear
8:55 PM 41.0 °F 32.8 °F 14.0 °F 33% 30.03 in 10.0 mi SSE 16.1 mph - N/A   Clear
9:15 PM 39.2 °F 31.6 °F 14.0 °F 36% 30.03 in 10.0 mi SSE 12.7 mph 19.6 mph N/A   Clear
9:35 PM 37.4 °F 29.8 °F 12.2 °F 36% 30.04 in 10.0 mi SSE 11.5 mph - N/A   Clear
9:55 PM 37.4 °F 29.3 °F 12.2 °F 36% 30.03 in 10.0 mi SSE 12.7 mph - N/A   Clear
10:15 PM 39.2 °F 30.8 °F 12.2 °F 33% 30.03 in 10.0 mi SSE 15.0 mph - N/A   Clear
10:35 PM 39.2 °F 30.8 °F 14.0 °F 36% 30.03 in 10.0 mi SSE 15.0 mph - N/A   Clear
10:55 PM 39.2 °F 30.8 °F 14.0 °F 36% 30.02 in 10.0 mi SSE 15.0 mph 21.9 mph N/A   Clear
11:15 PM 39.2 °F 30.2 °F 14.0 °F 36% 30.01 in 10.0 mi SSE 17.3 mph - N/A   Clear
11:35 PM 39.2 °F 29.8 °F 14.0 °F 36% 30.00 in 10.0 mi SSE 18.4 mph 25.3 mph N/A   Clear
11:55 PM 37.4 °F 27.2 °F 14.0 °F 38% 29.99 in 10.0 mi SSE 19.6 mph - N/A   Clear